| time (UTC) | temp C | wind direction | speed KPH | gust KPH | rain 1hr cm | rain 24hr cm | rain mn cm | humidity % | barometer mb |
| 20260506215425 | 8 | 70 | 3.2 | 6.4 | 0.00 | 0.51 | 0.51 | 92 | 1011.0 |
| 20260506214925 | 8 | 73 | 3.2 | 6.4 | 0.00 | 0.51 | 0.51 | 92 | 1011.0 |
| 20260506214422 | 8 | 67 | 3.2 | 6.4 | 0.00 | 0.51 | 0.51 | 92 | 1011.0 |
| 20260506213920 | 8 | 74 | 1.6 | 4.8 | 0.00 | 0.51 | 0.51 | 92 | 1011.0 |
| 20260506213417 | 8 | 74 | 1.6 | 6.4 | 0.00 | 0.51 | 0.51 | 92 | 1011.0 |
| 20260506212915 | 8 | 74 | 4.8 | 6.4 | 0.00 | 0.51 | 0.51 | 92 | 1011.0 |
| 20260506212414 | 8 | 53 | 4.8 | 6.4 | 0.00 | 0.51 | 0.51 | 92 | 1011.0 |
| 20260506211414 | 8 | 61 | 1.6 | 6.4 | 0.00 | 0.51 | 0.51 | 92 | 1010.9 |
| 20260506210919 | 8 | 61 | 3.2 | 6.4 | 0.00 | 0.51 | 0.51 | 92 | 1011.0 |
| 20260506210407 | 8 | 61 | 3.2 | 6.4 | 0.00 | 0.51 | 0.51 | 92 | 1010.9 |
| 20260506205904 | 8 | 58 | 3.2 | 6.4 | 0.00 | 0.51 | 0.51 | 92 | 1011.0 |
| 20260506205405 | 8 | 58 | 3.2 | 6.4 | 0.00 | 0.51 | 0.51 | 91 | 1011.1 |
| 20260506204907 | 8 | 62 | 3.2 | 6.4 | 0.00 | 0.51 | 0.51 | 91 | 1011.1 |
| 20260506204357 | 8 | 61 | 3.2 | 4.8 | 0.00 | 0.51 | 0.51 | 91 | 1011.2 |
| 20260506203856 | 8 | 61 | 3.2 | 6.4 | 0.00 | 0.51 | 0.51 | 91 | 1011.0 |
| 20260506202836 | 8 | 51 | 3.2 | 4.8 | 0.00 | 0.51 | 0.51 | 91 | 1011.0 |
| 20260506202333 | 8 | 44 | 1.6 | 6.4 | 0.00 | 0.51 | 0.51 | 91 | 1010.9 |
| 20260506201828 | 8 | 42 | 4.8 | 6.4 | 0.00 | 0.51 | 0.51 | 91 | 1010.9 |
| 20260506201325 | 8 | 63 | 3.2 | 4.8 | 0.00 | 0.51 | 0.51 | 90 | 1010.9 |
| 20260506200812 | 8 | 67 | 3.2 | 4.8 | 0.00 | 0.51 | 0.51 | 90 | 1010.9 |
| 20260506200314 | 8 | 67 | 3.2 | 4.8 | 0.00 | 0.51 | 0.51 | 90 | 1010.9 |
| 20260506195812 | 8 | 67 | 0.0 | 6.4 | 0.00 | 0.51 | 0.51 | 90 | 1010.8 |
| 20260506195306 | 8 | 67 | 3.2 | 6.4 | 0.00 | 0.51 | 0.51 | 90 | 1010.8 |
| 20260506194807 | 8 | 67 | 3.2 | 4.8 | 0.00 | 0.51 | 0.51 | 89 | 1010.9 |
| 20260506194305 | 8 | 67 | 1.6 | 4.8 | 0.00 | 0.51 | 0.51 | 89 | 1010.7 |
| 20260506193807 | 8 | 67 | 3.2 | 4.8 | 0.00 | 0.51 | 0.51 | 89 | 1010.7 |
| 20260506193256 | 9 | 241 | 0.0 | 3.2 | 0.00 | 0.51 | 0.51 | 89 | 1010.6 |
| 20260506192749 | 9 | 240 | 0.0 | 0.0 | 0.00 | 0.51 | 0.51 | 88 | 1010.6 |
| 20260506192243 | 9 | 240 | 0.0 | 0.0 | 0.00 | 0.51 | 0.51 | 88 | 1010.5 |
| 20260506191737 | 10 | 240 | 0.0 | 0.0 | 0.00 | 0.51 | 0.51 | 88 | 1010.3 |
| 20260506191234 | 10 | 240 | 0.0 | 0.0 | 0.00 | 0.51 | 0.51 | 87 | 1010.3 |
| 20260506190733 | 10 | 240 | 0.0 | 1.6 | 0.00 | 0.51 | 0.51 | 87 | 1010.4 |
| 20260506190232 | 10 | 240 | 0.0 | 3.2 | 0.00 | 0.51 | 0.51 | 86 | 1010.3 |
| 20260506185732 | 10 | 240 | 1.6 | 3.2 | 0.00 | 0.51 | 0.51 | 85 | 1010.3 |
| 20260506184732 | 10 | 238 | 1.6 | 8.0 | 0.00 | 0.51 | 0.51 | 84 | 1010.0 |
| 20260506184231 | 10 | 238 | 3.2 | 8.0 | 0.00 | 0.51 | 0.51 | 84 | 1009.9 |
| 20260506183732 | 10 | 241 | 3.2 | 4.8 | 0.00 | 0.51 | 0.51 | 84 | 1009.9 |
| 20260506183236 | 10 | 223 | 3.2 | 4.8 | 0.00 | 0.51 | 0.51 | 83 | 1009.8 |
| 20260506182736 | 11 | 239 | 3.2 | 6.4 | 0.00 | 0.51 | 0.51 | 82 | 1009.8 |
| 20260506182232 | 11 | 250 | 3.2 | 6.4 | 0.00 | 0.51 | 0.51 | 82 | 1009.8 |
| 20260506181735 | 11 | 213 | 3.2 | 4.8 | 0.00 | 0.53 | 0.51 | 81 | 1009.7 |
| 20260506181229 | 11 | 241 | 1.6 | 4.8 | 0.00 | 0.53 | 0.51 | 82 | 1009.7 |
| 20260506180726 | 11 | 241 | 3.2 | 6.4 | 0.00 | 0.56 | 0.51 | 81 | 1009.7 |
| 20260506180246 | 11 | 246 | 3.2 | 6.4 | 0.00 | 0.58 | 0.51 | 81 | 1009.6 |
| 20260506173705 | 11 | 196 | 4.8 | 12.9 | 0.00 | 0.61 | 0.51 | 83 | 1009.6 |
| 20260506173205 | 11 | 204 | 8.0 | 12.9 | 0.00 | 0.61 | 0.51 | 83 | 1009.5 |
| 20260506172702 | 11 | 213 | 6.4 | 9.7 | 0.00 | 0.61 | 0.51 | 83 | 1009.5 |
| 20260506172204 | 11 | 215 | 4.8 | 9.7 | 0.00 | 0.61 | 0.51 | 83 | 1009.5 |
| 20260506171703 | 11 | 161 | 6.4 | 12.9 | 0.00 | 0.61 | 0.51 | 83 | 1009.5 |
| 20260506171203 | 11 | 196 | 6.4 | 12.9 | 0.00 | 0.61 | 0.51 | 83 | 1009.3 |
| 20260506170659 | 11 | 196 | 4.8 | 6.4 | 0.00 | 0.61 | 0.51 | 85 | 1009.3 |
| 20260506165652 | 11 | 207 | 0.0 | 9.7 | 0.00 | 0.61 | 0.51 | 84 | 1009.1 |
| 20260506164149 | 11 | 207 | 8.0 | 12.9 | 0.00 | 0.61 | 0.51 | 84 | 1009.0 |
| 20260506163144 | 11 | 182 | 3.2 | 11.3 | 0.00 | 0.61 | 0.51 | 86 | 1009.2 |
| 20260506162643 | 11 | 217 | 8.0 | 12.9 | 0.00 | 0.61 | 0.51 | 85 | 1009.2 |
| 20260506162155 | 11 | 196 | 4.8 | 12.9 | 0.00 | 0.61 | 0.51 | 86 | 1009.1 |
| 20260506161141 | 11 | 215 | 4.8 | 12.9 | 0.00 | 0.61 | 0.51 | 86 | 1008.9 |
| 20260506160641 | 10 | 202 | 4.8 | 14.5 | 0.00 | 0.61 | 0.51 | 86 | 1009.0 |
| 20260506160147 | 10 | 190 | 6.4 | 14.5 | 0.00 | 0.61 | 0.51 | 86 | 1009.2 |
| 20260506155635 | 10 | 207 | 4.8 | 11.3 | 0.00 | 0.61 | 0.51 | 87 | 1009.2 |
| 20260506155137 | 11 | 205 | 3.2 | 8.0 | 0.00 | 0.61 | 0.51 | 88 | 1009.2 |
| 20260506154634 | 10 | 217 | 4.8 | 8.0 | 0.00 | 0.61 | 0.51 | 87 | 1009.1 |
| 20260506154131 | 10 | 217 | 3.2 | 8.0 | 0.00 | 0.61 | 0.51 | 87 | 1009.1 |
| 20260506153624 | 10 | 216 | 3.2 | 6.4 | 0.00 | 0.61 | 0.51 | 87 | 1009.1 |
| 20260506153116 | 10 | 215 | 3.2 | 12.9 | 0.00 | 0.61 | 0.51 | 87 | 1009.0 |
| 20260506152614 | 10 | 215 | 4.8 | 12.9 | 0.00 | 0.61 | 0.51 | 87 | 1008.9 |
| 20260506151612 | 10 | 238 | 1.6 | 8.0 | 0.03 | 0.61 | 0.51 | 88 | 1008.9 |
| 20260506151106 | 10 | 267 | 3.2 | 8.0 | 0.03 | 0.61 | 0.51 | 88 | 1009.0 |
| 20260506150603 | 10 | 250 | 1.6 | 4.8 | 0.03 | 0.61 | 0.51 | 88 | 1009.2 |
| 20260506150118 | 10 | 245 | 1.6 | 4.8 | 0.03 | 0.61 | 0.51 | 89 | 1009.1 |
| 20260506145605 | 10 | 221 | 1.6 | 4.8 | 0.03 | 0.58 | 0.51 | 88 | 1009.3 |
| 20260506145103 | 10 | 235 | 1.6 | 6.4 | 0.05 | 0.58 | 0.51 | 89 | 1009.3 |
| 20260506144603 | 10 | 247 | 3.2 | 6.4 | 0.05 | 0.58 | 0.51 | 89 | 1009.2 |
| 20260506144100 | 10 | 13 | 3.2 | 4.8 | 0.05 | 0.58 | 0.51 | 89 | 1009.2 |
| 20260506143617 | 10 | 28 | 3.2 | 4.8 | 0.05 | 0.58 | 0.51 | 89 | 1009.2 |
| 20260506143053 | 10 | 259 | 1.6 | 9.7 | 0.08 | 0.58 | 0.51 | 89 | 1009.2 |
| 20260506142550 | 10 | 255 | 1.6 | 9.7 | 0.15 | 0.58 | 0.51 | 89 | 1009.3 |
| 20260506141547 | 10 | 259 | 0.0 | 4.8 | 0.15 | 0.58 | 0.48 | 89 | 1009.3 |
| 20260506141045 | 10 | 259 | 0.0 | 4.8 | 0.18 | 0.58 | 0.48 | 89 | 1009.3 |
| 20260506140537 | 10 | 259 | 1.6 | 6.4 | 0.20 | 0.58 | 0.48 | 89 | 1009.3 |
| 20260506135534 | 10 | 245 | 4.8 | 11.3 | 0.23 | 0.36 | 0.48 | 90 | 1009.2 |
| 20260506135031 | 9 | 246 | 4.8 | 12.9 | 0.23 | 0.36 | 0.46 | 90 | 1009.1 |
| 20260506134533 | 9 | 215 | 4.8 | 16.1 | 0.28 | 0.36 | 0.46 | 90 | 1009.1 |
| 20260506134036 | 9 | 261 | 9.7 | 16.1 | 0.33 | 0.36 | 0.43 | 90 | 1008.9 |
| 20260506133531 | 9 | 245 | 9.7 | 19.3 | 0.36 | 0.36 | 0.43 | 90 | 1008.8 |
| 20260506133031 | 9 | 225 | 6.4 | 19.3 | 0.36 | 0.36 | 0.41 | 89 | 1009.0 |
| 20260506132533 | 9 | 241 | 6.4 | 16.1 | 0.33 | 0.36 | 0.36 | 89 | 1009.1 |
| 20260506132031 | 9 | 238 | 6.4 | 19.3 | 0.33 | 0.36 | 0.33 | 89 | 1009.1 |
| 20260506131031 | 9 | 230 | 8.0 | 16.1 | 0.30 | 0.36 | 0.30 | 88 | 1008.9 |
| 20260506130110 | 10 | 249 | 6.4 | 19.3 | 0.25 | 0.36 | 0.25 | 87 | 1008.6 |
| 20260506125524 | 10 | 242 | 6.4 | 22.5 | 0.25 | 0.10 | 0.23 | 86 | 1008.6 |
| 20260506125021 | 10 | 236 | 6.4 | 32.2 | 0.23 | 0.10 | 0.23 | 85 | 1008.4 |
| 20260506124521 | 11 | 227 | 14.5 | 35.4 | 0.18 | 0.10 | 0.15 | 83 | 1008.3 |
| 20260506124017 | 11 | 197 | 24.1 | 35.4 | 0.10 | 0.10 | 0.10 | 83 | 1008.0 |
| 20260506123515 | 12 | 197 | 9.7 | 19.3 | 0.08 | 0.10 | 0.05 | 84 | 1007.7 |
| 20260506123014 | 12 | 215 | 6.4 | 19.3 | 0.05 | 0.10 | 0.05 | 82 | 1007.3 |
| 20260506122514 | 13 | 194 | 9.7 | 19.3 | 0.03 | 0.10 | 0.03 | 80 | 1007.1 |
| 20260506122014 | 13 | 186 | 11.3 | 17.7 | 0.00 | 0.10 | 0.00 | 79 | 1006.8 |
| 20260506121518 | 13 | 217 | 6.4 | 24.1 | 0.00 | 0.10 | 0.00 | 78 | 1006.6 |
| 20260506120512 | 14 | 205 | 4.8 | 11.3 | 0.00 | 0.10 | 0.00 | 73 | 1006.3 |
| 20260506120048 | 14 | 200 | 8.0 | 11.3 | 0.00 | 0.10 | 0.00 | 72 | 1006.3 |
| 20260506115510 | 14 | 215 | 3.2 | 6.4 | 0.00 | 0.10 | 0.00 | 72 | 1006.2 |
| 20260506115011 | 14 | 224 | 3.2 | 6.4 | 0.00 | 0.10 | 0.00 | 72 | 1006.2 |
| 20260506114500 | 14 | 227 | 1.6 | 6.4 | 0.00 | 0.10 | 0.00 | 72 | 1006.2 |
| 20260506113957 | 14 | 223 | 3.2 | 6.4 | 0.00 | 0.10 | 0.00 | 72 | 1006.2 |
| 20260506113457 | 14 | 236 | 3.2 | 6.4 | 0.00 | 0.10 | 0.00 | 72 | 1006.2 |
| 20260506112954 | 14 | 211 | 3.2 | 6.4 | 0.00 | 0.10 | 0.00 | 72 | 1006.2 |
| 20260506112457 | 14 | 211 | 3.2 | 8.0 | 0.00 | 0.10 | 0.00 | 72 | 1006.1 |
| 20260506111957 | 14 | 182 | 4.8 | 8.0 | 0.00 | 0.10 | 0.00 | 73 | 1006.1 |
| 20260506105942 | 14 | 227 | 3.2 | 8.0 | 0.00 | 0.10 | 0.00 | 72 | 1006.2 |
| 20260506105441 | 14 | 232 | 3.2 | 8.0 | 0.00 | 0.10 | 0.00 | 72 | 1006.2 |
| 20260506103931 | 14 | 243 | 3.2 | 8.0 | 0.00 | 0.10 | 0.00 | 71 | 1006.1 |
| 20260506103431 | 14 | 226 | 3.2 | 6.4 | 0.00 | 0.10 | 0.00 | 71 | 1006.2 |
| 20260506102933 | 15 | 265 | 3.2 | 9.7 | 0.00 | 0.10 | 0.00 | 72 | 1006.2 |
| 20260506102431 | 15 | 217 | 4.8 | 9.7 | 0.00 | 0.10 | 0.00 | 72 | 1006.2 |
| 20260506101934 | 14 | 212 | 6.4 | 9.7 | 0.00 | 0.10 | 0.00 | 72 | 1006.2 |
| 20260506101431 | 14 | 200 | 3.2 | 6.4 | 0.00 | 0.10 | 0.00 | 74 | 1006.2 |
| 20260506100934 | 14 | 205 | 4.8 | 8.0 | 0.00 | 0.10 | 0.00 | 73 | 1006.3 |
| 20260506100432 | 14 | 190 | 4.8 | 9.7 | 0.00 | 0.10 | 0.00 | 73 | 1006.4 |
| 20260506095931 | 14 | 216 | 4.8 | 11.3 | 0.00 | 0.10 | 0.00 | 73 | 1006.3 |
| 20260506095432 | 14 | 219 | 6.4 | 11.3 | 0.00 | 0.10 | 0.00 | 73 | 1006.3 |
| 20260506094431 | 14 | 200 | 8.0 | 12.9 | 0.00 | 0.10 | 0.00 | 74 | 1006.2 |
| 20260506093933 | 15 | 186 | 4.8 | 12.9 | 0.00 | 0.10 | 0.00 | 73 | 1006.3 |
| 20260506093433 | 15 | 177 | 6.4 | 12.9 | 0.00 | 0.10 | 0.00 | 73 | 1006.3 |
| 20260506092932 | 15 | 225 | 6.4 | 11.3 | 0.00 | 0.10 | 0.00 | 74 | 1006.3 |
| 20260506092431 | 15 | 197 | 8.0 | 11.3 | 0.00 | 0.10 | 0.00 | 76 | 1006.2 |
| 20260506091932 | 14 | 196 | 6.4 | 11.3 | 0.00 | 0.10 | 0.00 | 75 | 1006.3 |
| 20260506091433 | 14 | 5 | 3.2 | 8.0 | 0.00 | 0.10 | 0.00 | 78 | 1006.2 |
| 20260506090932 | 13 | 190 | 3.2 | 12.9 | 0.00 | 0.10 | 0.00 | 78 | 1006.3 |
| 20260506090434 | 13 | 198 | 4.8 | 12.9 | 0.00 | 0.10 | 0.00 | 78 | 1006.3 |
| 20260506085425 | 13 | 200 | 6.4 | 11.3 | 0.00 | 0.10 | 0.00 | 79 | 1006.4 |
| 20260506084923 | 13 | 209 | 4.8 | 8.0 | 0.00 | 0.10 | 0.00 | 80 | 1006.2 |
| 20260506083920 | 13 | 236 | 4.8 | 9.7 | 0.00 | 0.10 | 0.00 | 79 | 1006.3 |
| 20260506082912 | 12 | 180 | 3.2 | 6.4 | 0.00 | 0.10 | 0.00 | 83 | 1006.4 |
| 20260506082409 | 12 | 184 | 4.8 | 6.4 | 0.00 | 0.10 | 0.00 | 83 | 1006.2 |
| 20260506081908 | 12 | 199 | 1.6 | 6.4 | 0.00 | 0.10 | 0.00 | 83 | 1006.2 |
| 20260506081408 | 12 | 176 | 4.8 | 8.0 | 0.00 | 0.10 | 0.00 | 84 | 1006.3 |
| 20260506080903 | 12 | 147 | 3.2 | 8.0 | 0.00 | 0.10 | 0.00 | 84 | 1006.2 |
| 20260506080404 | 12 | 209 | 3.2 | 6.4 | 0.00 | 0.10 | 0.00 | 84 | 1006.2 |
| 20260506072839 | 11 | 173 | 3.2 | 6.4 | 0.00 | 0.10 | 0.00 | 84 | 1006.4 |
| 20260506072336 | 11 | 171 | 3.2 | 6.4 | 0.00 | 0.10 | 0.00 | 83 | 1006.5 |
| 20260506071834 | 11 | 171 | 1.6 | 6.4 | 0.00 | 0.10 | 0.00 | 83 | 1006.4 |
| 20260506071333 | 11 | 171 | 4.8 | 6.4 | 0.00 | 0.10 | 0.00 | 83 | 1006.5 |
| 20260506070838 | 11 | 169 | 3.2 | 3.2 | 0.00 | 0.10 | 0.00 | 83 | 1006.4 |
| 20260506070333 | 11 | 69 | 0.0 | 0.0 | 0.00 | 0.10 | 0.00 | 83 | 1006.5 |
| 20260506062305 | 11 | 69 | 0.0 | 0.0 | 0.00 | 0.10 | 0.00 | 84 | 1006.5 |
| 20260506061303 | 11 | 69 | 0.0 | 0.0 | 0.00 | 0.10 | 0.00 | 84 | 1006.5 |
| 20260506051238 | 9 | 69 | 1.6 | 3.2 | 0.00 | 0.10 | 0.00 | 89 | 1006.5 |
| 20260506044729 | 9 | 69 | 1.6 | 4.8 | 0.00 | 0.10 | 0.00 | 88 | 1006.5 |
| 20260506044227 | 9 | 69 | 3.2 | 4.8 | 0.00 | 0.10 | 0.00 | 88 | 1006.5 |
| 20260506043726 | 9 | 69 | 0.0 | 4.8 | 0.00 | 0.10 | 0.00 | 88 | 1006.5 |
| 20260506043223 | 9 | 69 | 1.6 | 4.8 | 0.00 | 0.10 | 0.00 | 88 | 1006.6 |
| 20260506042722 | 9 | 69 | 3.2 | 6.4 | 0.00 | 0.10 | 0.00 | 88 | 1006.6 |
| 20260506042220 | 9 | 69 | 3.2 | 6.4 | 0.00 | 0.10 | 0.00 | 88 | 1006.6 |
| 20260506041716 | 9 | 51 | 3.2 | 6.4 | 0.00 | 0.10 | 0.00 | 88 | 1006.5 |
| 20260506041214 | 9 | 51 | 3.2 | 6.4 | 0.00 | 0.10 | 0.00 | 88 | 1006.6 |
| 20260506040711 | 9 | 51 | 3.2 | 8.0 | 0.00 | 0.10 | 0.00 | 89 | 1006.7 |
| 20260506040212 | 9 | 48 | 4.8 | 8.0 | 0.00 | 0.10 | 0.00 | 89 | 1006.8 |
| 20260506035709 | 8 | 48 | 6.4 | 8.0 | 0.00 | 0.10 | 0.00 | 90 | 1006.7 |
| 20260506035209 | 8 | 69 | 3.2 | 8.0 | 0.00 | 0.10 | 0.00 | 90 | 1006.9 |
| 20260506034208 | 8 | 56 | 4.8 | 6.4 | 0.00 | 0.10 | 0.00 | 90 | 1007.1 |
| 20260506033206 | 8 | 58 | 3.2 | 9.7 | 0.00 | 0.10 | 0.00 | 90 | 1007.3 |
| 20260506032704 | 8 | 57 | 4.8 | 9.7 | 0.00 | 0.10 | 0.00 | 90 | 1007.2 |
| 20260506032206 | 8 | 51 | 0.0 | 4.8 | 0.00 | 0.10 | 0.00 | 90 | 1007.2 |
| 20260506031704 | 8 | 51 | 0.0 | 0.0 | 0.00 | 0.10 | 0.00 | 89 | 1007.4 |
| 20260506031207 | 8 | 51 | 0.0 | 0.0 | 0.00 | 0.10 | 0.00 | 89 | 1007.4 |
| 20260506030155 | 8 | 51 | 0.0 | 3.2 | 0.00 | 0.10 | 0.00 | 89 | 1007.6 |
| 20260506025651 | 8 | 51 | 0.0 | 3.2 | 0.00 | 0.10 | 0.00 | 89 | 1007.7 |
| 20260506025149 | 9 | 51 | 0.0 | 4.8 | 0.00 | 0.10 | 0.00 | 89 | 1007.6 |
| 20260506024642 | 9 | 51 | 3.2 | 4.8 | 0.00 | 0.10 | 0.00 | 89 | 1007.6 |
| 20260506024143 | 9 | 50 | 0.0 | 3.2 | 0.00 | 0.10 | 0.00 | 89 | 1007.6 |
| 20260506023636 | 9 | 50 | 0.0 | 3.2 | 0.00 | 0.10 | 0.00 | 89 | 1007.7 |
| 20260506023135 | 9 | 50 | 0.0 | 3.2 | 0.00 | 0.10 | 0.00 | 89 | 1007.8 |
| 20260506022136 | 9 | 50 | 1.6 | 4.8 | 0.00 | 0.10 | 0.00 | 88 | 1008.0 |
| 20260506021634 | 10 | 50 | 0.0 | 6.4 | 0.00 | 0.10 | 0.00 | 88 | 1008.0 |
| 20260506021129 | 10 | 50 | 3.2 | 6.4 | 0.00 | 0.10 | 0.00 | 87 | 1008.0 |
| 20260506020629 | 10 | 74 | 3.2 | 6.4 | 0.00 | 0.10 | 0.00 | 87 | 1008.0 |
| 20260506015614 | 10 | 113 | 3.2 | 4.8 | 0.00 | 0.10 | 0.00 | 87 | 1008.0 |
| 20260506015110 | 10 | 113 | 3.2 | 6.4 | 0.00 | 0.10 | 0.00 | 87 | 1008.2 |
| 20260506014607 | 10 | 140 | 3.2 | 6.4 | 0.00 | 0.10 | 0.00 | 87 | 1008.2 |
| 20260506014110 | 10 | 57 | 3.2 | 6.4 | 0.00 | 0.10 | 0.00 | 87 | 1008.3 |
| 20260506013605 | 10 | 99 | 1.6 | 4.8 | 0.00 | 0.10 | 0.00 | 87 | 1008.3 |
| 20260506013103 | 10 | 101 | 3.2 | 6.4 | 0.00 | 0.10 | 0.00 | 87 | 1008.4 |
| 20260506012603 | 10 | 49 | 4.8 | 6.4 | 0.00 | 0.10 | 0.00 | 88 | 1008.3 |
| 20260506012055 | 10 | 69 | 3.2 | 3.2 | 0.00 | 0.10 | 0.00 | 88 | 1008.4 |
| 20260506011557 | 10 | 69 | 1.6 | 6.4 | 0.00 | 0.10 | 0.00 | 87 | 1008.5 |
| 20260506010552 | 10 | 65 | 0.0 | 3.2 | 0.00 | 0.10 | 0.00 | 87 | 1008.5 |
| 20260506005532 | 10 | 65 | 1.6 | 3.2 | 0.00 | 0.10 | 0.00 | 87 | 1008.6 |
| 20260506005031 | 10 | 65 | 1.6 | 4.8 | 0.00 | 0.10 | 0.00 | 87 | 1008.5 |
| 20260506004539 | 10 | 65 | 3.2 | 4.8 | 0.00 | 0.10 | 0.00 | 88 | 1008.7 |
| 20260506004036 | 10 | 63 | 3.2 | 6.4 | 0.00 | 0.10 | 0.00 | 88 | 1008.7 |
| 20260506003031 | 10 | 32 | 6.4 | 9.7 | 0.00 | 0.10 | 0.00 | 88 | 1008.6 |
| 20260506002532 | 10 | 53 | 6.4 | 8.0 | 0.00 | 0.10 | 0.00 | 88 | 1008.7 |
| 20260506002029 | 10 | 51 | 6.4 | 8.0 | 0.00 | 0.10 | 0.00 | 88 | 1008.8 |
| 20260506001527 | 10 | 57 | 3.2 | 6.4 | 0.00 | 0.10 | 0.00 | 88 | 1008.9 |
| 20260506001028 | 10 | 59 | 3.2 | 6.4 | 0.00 | 0.10 | 0.00 | 88 | 1009.1 |
| 20260506000527 | 10 | 84 | 3.2 | 3.2 | 0.00 | 0.10 | 0.00 | 88 | 1009.1 |
| 20260506000042 | 10 | 84 | 0.0 | 3.2 | 0.00 | 0.10 | 0.00 | 88 | 1009.2 |
| 20260505235520 | 10 | 84 | 1.6 | 4.8 | 0.00 | 0.10 | 0.00 | 87 | 1009.2 |
| 20260505235010 | 10 | 86 | 3.2 | 4.8 | 0.00 | 0.10 | 0.00 | 88 | 1009.3 |
| 20260505234514 | 10 | 57 | 3.2 | 6.4 | 0.00 | 0.10 | 0.00 | 88 | 1009.1 |
| 20260505233947 | 10 | 48 | 3.2 | 9.7 | 0.00 | 0.10 | 0.00 | 88 | 1008.9 |
| 20260505233449 | 10 | 59 | 6.4 | 9.7 | 0.00 | 0.10 | 0.00 | 88 | 1008.9 |
| 20260505232952 | 10 | 77 | 4.8 | 8.0 | 0.00 | 0.10 | 0.00 | 89 | 1009.0 |
| 20260505232446 | 10 | 63 | 3.2 | 8.0 | 0.00 | 0.10 | 0.00 | 89 | 1009.0 |
| 20260505231939 | 10 | 65 | 4.8 | 8.0 | 0.00 | 0.10 | 0.00 | 89 | 1009.1 |
| 20260505231436 | 10 | 82 | 4.8 | 8.0 | 0.00 | 0.10 | 0.00 | 89 | 1009.1 |
| 20260505230935 | 10 | 65 | 3.2 | 8.0 | 0.00 | 0.10 | 0.00 | 90 | 1009.2 |
| 20260505230437 | 10 | 69 | 4.8 | 8.0 | 0.00 | 0.10 | 0.00 | 90 | 1009.3 |
| 20260505225932 | 9 | 69 | 6.4 | 8.0 | 0.00 | 0.10 | 0.00 | 90 | 1009.5 |
| 20260505225436 | 9 | 61 | 3.2 | 8.0 | 0.00 | 0.10 | 0.00 | 90 | 1009.6 |
| 20260505224937 | 9 | 69 | 6.4 | 8.0 | 0.00 | 0.10 | 0.00 | 90 | 1009.6 |
| 20260505224434 | 9 | 60 | 1.6 | 6.4 | 0.00 | 0.10 | 0.00 | 90 | 1009.7 |
| 20260505223932 | 9 | 58 | 3.2 | 6.4 | 0.00 | 0.10 | 0.00 | 90 | 1009.6 |
| 20260505222932 | 9 | 65 | 3.2 | 6.4 | 0.00 | 0.10 | 0.00 | 90 | 1009.7 |
| 20260505222438 | 9 | 63 | 1.6 | 6.4 | 0.00 | 0.10 | 0.00 | 90 | 1009.7 |
| 20260505221434 | 9 | 76 | 0.0 | 6.4 | 0.00 | 0.10 | 0.00 | 89 | 1009.7 |
| 20260505220430 | 9 | 65 | 3.2 | 6.4 | 0.00 | 0.10 | 0.00 | 89 | 1009.7 |